Location: Nelson
(38.9945°N, 93.0321°W)
Time: 14:59:33
(UTC+00:00)

ACS3 Solar Sail - Pass Details

Date: 26 June 2024
Orbit: 993 x 1023 km, 97.4° (Epoch: 19 July)

Event Time Altitude Azimuth Distance (km) Brightness Sun altitude
Exits shadow 02:30:42 10° 119° (ESE) 2,787 6.5 -8.6°
Reaches altitude 10° 02:30:48 10° 119° (ESE) 2,761 6.5 -8.6°
Maximum altitude 02:35:43 26° 66° (ENE) 1,869 6.1 -9.3°
Drops below altitude 10° 02:40:39 10° 13° (NNE) 2,765 7.6 -10.0°
Sets 02:43:32 0° 1° (N) 3,717 8.5 -10.4°
